Weather History for Fort Campbell, KY

Change the Weather History Date:

Monday, January 9, 2012

  Actual Average Record
Temperature  
Mean Temperature 45 °F -  
Max Temperature 55 °F 44 °F 60 °F (2002)
Min Temperature 34 °F 27 °F 11 °F (2011)
Degree Days  
Heating Degree Days 20    
Moisture  
Dew Point 37 °F    
Average Humidity 74    
Maximum Humidity 99    
Minimum Humidity 51    
Precipitation  
Precipitation 0.00 in - - ()
Sea Level Pressure  
Sea Level Pressure 30.17 in    
Wind  
Wind Speed 3 mph (NE)    
Max Wind Speed 7 mph    
Max Gust Speed -    
Visibility 10 miles    
Events      
Averages and records for this station are not official NWS values.
T = Trace of Precipitation, MM = Missing Value Source: NWS Daily Summary

Daily Weather History Graph

Daily Weather History Graph

Search for Another Location

Airport:

Trip Planner

Search our weather history database for the weather conditions in past years. The results will help you decide how hot, cold, wet, or windy it might be!

Date:

Astronomy

Jan. 09, 2012 Rise Set
Actual Time 7:02 AM CST 4:51 PM CST
Civil Twilight 6:34 AM CST 5:19 PM CST
Nautical Twilight 6:02 AM CST 5:51 PM CST
Astronomical Twilight 5:30 AM CST 6:23 PM CST
Moon 5:35 PM CST (1/9) 7:04 AM CST (1/9)
Length of Visible Light 10h 45m
Length of Day
9h 48m
Full, 100% of the Moon is Illuminated
Jan 9
Full
Jan 16
Last Quarter
Jan 23
New
Jan 30
First Quarter
Feb 7
Full

Hourly Weather History & Observations

Time (CST) Temp. Windchill Dew Point Humidity Pressure Visibility Wind Dir Wind Speed Gust Speed Precip Events Conditions
12:13 AM 46.4 °F 44.3 °F 32.0 °F 57% 30.17 in 10.0 mi ENE 4.6 mph - N/A   Overcast
12:52 AM 46.4 °F 44.3 °F 32.0 °F 57% 30.17 in 10.0 mi NE 4.6 mph - N/A   Overcast
12:55 AM 46.2 °F 44.1 °F 32.7 °F 59% 30.17 in 10.0 mi NE 4.6 mph - N/A   Overcast
1:09 AM 46.4 °F 44.3 °F 32.0 °F 57% 30.17 in 10.0 mi NE 4.6 mph - N/A   Light Drizzle
1:22 AM 46.4 °F 45.2 °F 32.0 °F 57% 30.17 in 10.0 mi NE 3.5 mph - N/A   Overcast
1:55 AM 45.9 °F 44.6 °F 34.7 °F 65% 30.18 in 10.0 mi Variable 3.5 mph - 0.00 in   Overcast
1:58 AM 46.4 °F - 33.8 °F 62% 30.18 in 10.0 mi Calm Calm - N/A   Light Drizzle
2:11 AM 46.4 °F - 33.8 °F 62% 30.18 in 10.0 mi Calm Calm - N/A   Overcast
2:55 AM 45.0 °F 43.5 °F 34.2 °F 66% 30.18 in 10.0 mi NNE 3.5 mph - 0.00 in   Overcast
3:17 AM 44.6 °F 42.2 °F 35.6 °F 71% 30.17 in 10.0 mi Variable 4.6 mph - N/A   Light Drizzle
3:21 AM 44.6 °F 41.4 °F 35.6 °F 71% 30.17 in 10.0 mi NNE 5.8 mph - N/A   Light Drizzle
3:45 AM 42.8 °F 41.1 °F 37.4 °F 81% 30.19 in 10.0 mi Variable 3.5 mph - N/A   Overcast
3:55 AM 41.9 °F 40.0 °F 38.5 °F 88% 30.18 in 10.0 mi Variable 3.5 mph - 0.00 in   Overcast
4:55 AM 41.4 °F 36.8 °F 39.7 °F 94% 30.16 in 10.0 mi ESE 6.9 mph - N/A   Overcast
5:55 AM 41.2 °F 38.2 °F 40.1 °F 96% 30.19 in 10.0 mi NE 4.6 mph - N/A   Overcast
6:55 AM 41.0 °F 39.0 °F 40.8 °F 99% 30.18 in 10.0 mi NE 3.5 mph - N/A   Overcast
7:55 AM 41.7 °F - 41.2 °F 98% 30.18 in 10.0 mi Calm Calm - N/A   Overcast
8:55 AM 42.8 °F - 41.0 °F 93% 30.20 in 10.0 mi Calm Calm - N/A   Overcast
9:34 AM 44.6 °F 43.1 °F 41.0 °F 87% 30.22 in 10.0 mi Variable 3.5 mph - N/A   Overcast
10:55 AM 47.3 °F - 42.4 °F 83% 30.19 in 10.0 mi Calm Calm - N/A   Overcast
11:55 AM 49.1 °F - 41.0 °F 74% 30.16 in 10.0 mi NNW 4.6 mph - N/A   Scattered Clouds
12:55 PM 52.5 °F - 39.6 °F 61% 30.14 in 10.0 mi Variable 3.5 mph - N/A   Clear
1:55 PM 54.1 °F - 39.7 °F 58% 30.12 in 10.0 mi Calm Calm - N/A   Clear
2:58 PM 55.4 °F - 37.4 °F 51% 30.19 in 7.0 mi Variable 2.3 mph - N/A   Clear
3:55 PM 52.3 °F - 38.3 °F 59% 30.16 in 10.0 mi Calm Calm - N/A   Clear
4:55 PM 48.6 °F - 37.6 °F 66% 30.15 in 10.0 mi Calm Calm - N/A   Partly Cloudy
5:55 PM 45.9 °F - 36.7 °F 70% 30.16 in 10.0 mi Calm Calm - N/A   Mostly Cloudy
6:55 PM 45.0 °F - 36.3 °F 72% 30.15 in 10.0 mi Calm Calm - N/A   Partly Cloudy
7:55 PM 42.8 °F - 34.5 °F 73% 30.15 in 10.0 mi Calm Calm - N/A   Clear
8:55 PM 41.2 °F - 34.9 °F 78% 30.15 in 10.0 mi Calm Calm - N/A   Clear
9:55 PM 39.4 °F - 34.2 °F 82% 30.16 in 10.0 mi Calm Calm - N/A   Clear
10:55 PM 35.1 °F - 34.7 °F 99% 30.16 in 10.0 mi Calm Calm - N/A   Partly Cloudy
11:55 PM 34.7 °F - 34.0 °F 97% 30.15 in 10.0 mi Calm Calm - N/A   Clear